Regional Weather Roundup
Issued by NWS

Home | Current Version | Previous Version | Graphics & Text | Print | Product List | Glossary On
Versions: 1 2 3 4 5 6 7 8 9 10 11 12 13 14 15 16 17 18 19 20 21 22 23 24 25 26 27 28 29 30 31 32 33 34 35 36 37 38 39 40 41 42 43 44 45 46 47 48 49 50
000
ASUS43 KDTX 200910
RWRMI
MICHIGAN HOURLY REGIONAL WEATHER ROUNDUP
NATIONAL WEATHER SERVICE DETROIT/PONTIAC MI
500 AM EDT WED AUG 20 2014

NOTE: "FAIR" INDICATES FEW OR NO CLOUDS BELOW 12,000 FEET WITH NO
SIGNIFICANT WEATHER AND/OR OBSTRUCTION TO VISIBILITY.

MIZ047>049-052>055-059>063-066>070-074>076-081>083-201000-
SOUTHEAST LOWER MICHIGAN

CITY           SKY/WX    TMP DP  RH WIND       PRES   REMARKS
ADRIAN           N/A     64  63  96 SW5       29.81R FOG
ALMA           FOG       66  65  97 W3        29.78R VSB 1/2
ANN ARBOR      FOG       63  61  93 CALM      29.80R VSB 3/4
BAD AXE        CLOUDY    66  66 100 S3        29.79R FOG
CARO           CLOUDY    65  64  97 CALM      29.78S
DETROIT CITY   CLOUDY    70  65  84 SW5       29.79S
DETROIT        CLOUDY    67  65  93 S3        29.80R FOG
FLINT          MOCLDY    66  62  87 S5        29.79R
GROSSE ILE     CLOUDY    70  66  88 S10       29.78S
HILLSDALE      PTCLDY    66  66 100 CALM      29.81R FOG
HOWELL         MOCLDY    62  62  99 CALM      29.79R

CITY           SKY/WX    TMP DP  RH WIND       PRES   REMARKS
JACKSON        CLOUDY    66  64  93 S3        29.80R
LAMBERTVILLE   MOCLDY    68  64  88 S5        29.81R
LANSING        PTCLDY    65  63  93 CALM      29.79R FOG
LAPEER         FAIR      62  61  96 CALM      29.79S FOG
MASON          CLOUDY    64  63  97 CALM      29.79R FOG
MONROE         CLOUDY    66  64  94 S3        29.79R
MT. CLEMENS    CLOUDY    67  67  99 S3        29.79R
PONTIAC        MOCLDY    64  62  93 CALM      29.80R
PORT HOPE        N/A     67  64  90 VRB3      29.77R
PORT HURON     CLOUDY    64  64 100 CALM      29.80R
TRI CITIES     CLOUDY    68  66  93 W3        29.78R FOG
TROY           CLOUDY    67  65  93 SW3       29.82R FOG
SAGINAW HB     CLOUDY    68  68 100 CALM      29.77R
$$
MIZ043>046-050>051-056>058-064>065-071>073-077>080-201000-
SOUTHWEST LOWER MICHIGAN

CITY           SKY/WX    TMP DP  RH WIND       PRES   REMARKS
BATTLE CREEK   PTCLDY    66  64  93 S6        29.80R FOG
BENTON HARBOR  CLEAR     67  65  93 CALM      29.79R
BIG RAPIDS     CLOUDY    66  66 100 W5        29.77S
COLDWATER      CLOUDY    67  66  96 SW5       29.80S FOG
FREMONT        CLOUDY    64  64  98 CALM      29.78R FOG
HOLLAND        CLEAR     68  65  90 CALM      29.79R
GRAND RAPIDS   MOCLDY    66  66 100 W6        29.79R FOG
IONIA          FOG       62  62  98 W3        29.77S VSB 1/4
KALAMAZOO      CLEAR     67  65  93 CALM      29.80R
LUDINGTON      FOG       63  62  97 CALM      29.78R VSB<1/4
MARSHALL       CLOUDY    65  64  97 SW5       29.79R FOG
MOUNT PLEASANT FOG       67  66  97 CALM      29.76S VSB 3/4
MUSKEGON       PTCLDY    66  63  90 W5        29.78R
SOUTH HAVEN    CLEAR     65  65 100 CALM      29.79R FOG
$$
MIZ016>042-201000-
NORTHERN LOWER MICHIGAN

CITY           SKY/WX    TMP DP  RH WIND       PRES   REMARKS
ALPENA         PTCLDY    64  63  96 SW3       29.75R FOG
BEAVER ISLAND  FOG       63  63  99 CALM      29.74R VSB 1/2
BELLAIRE       CLOUDY    66  65  94 CALM      29.74R
CADILLAC       CLOUDY    64  64 100 W8        29.78R FOG
CHARLEVOIX     CLOUDY    65  65 100 SW5       29.77R
FRANKFORT      CLOUDY    63  60  91 CALM      29.76R FOG
GAYLORD        CLOUDY    63  63 100 S3        29.77R FOG
GRAYLING       CLOUDY    62  62 100 CALM      29.78R FOG
HARBOR SPRINGS FOG       64  63  97 CALM      29.74R VSB 1/2
HOUGHTON LAKE  CLOUDY    65  64  97 SW6       29.78R
MANISTEE       CLOUDY    63  61  94 CALM      29.78R
OSCODA         FOG       67  67 100 SW5       29.76R VSB 1
PELLSTON       FOG       61  61 100 CALM      29.75R VSB 1/4
ROGERS CITY    FOG       63  63 100 MISG      29.75R VSB 1/2
TRAVERSE CITY  CLOUDY    66  62  87 W5        29.74R
$$
MIZ007>008-015-201000-
EASTERN UPPER MICHIGAN

CITY           SKY/WX    TMP DP  RH WIND       PRES   REMARKS
KINROSS        CLOUDY    61  59  94 NE5       29.76R VSB 1/2
MACKINAC ISLAN FOG       58  58 100 NE6       29.75R VSB 1/4
NEWBERRY       FOG       59  59 100 CALM      29.75S VSB 1/2
S. S. MARIE    CLOUDY    60  59  96 CALM      29.75S FOG
MUNISING         N/A     60  58  92 N12       29.76R
$$
MIZ004>006-011>014-085-201000-
CENTRAL UPPER MICHIGAN

CITY           SKY/WX    TMP DP  RH WIND       PRES   REMARKS
MANISTIQUE     DRIZZLE   61  61 100 N3        29.74R
ESCANABA       CLOUDY    61  57  88 NW5       29.75S
MENOMINEE      CLOUDY    63  59  88 NW3       29.76R
SAWYER-GWINN   FOG       58  57  97 NW5       29.78R VSB 3/4
$$
MIZ001>003-009>011-084-201000-
WESTERN UPPER MICHIGAN

CITY           SKY/WX    TMP DP  RH WIND       PRES   REMARKS
IRON MOUNTAIN  CLOUDY    59  56  89 NW9       29.77R
HOUGHTON       LGT RAIN  55  54  96 NW9       29.80R FOG
COPPER HARBOR    N/A     56  55  97 N9        29.78R
IRONWOOD       CLOUDY    55  55 100 CALM      29.81S VSB 3/4
$$

ABBREVIATIONS USED IN REMARKS
   TC - TEMPERATURE IN CELSIUS
  WCI - WIND CHILL INDEX
   HX - HEAT INDEX
  VSB - VISIBILITY




USA.gov is the U.S. government's official web portal to all federal, state and local government web resources and services.